{"data":{"norad_id":48073,"epoch":"2026-05-25T00:06:01.100160Z","epoch_age_seconds":64792,"freshness":"FRESH","line1":"1 48073U 21025AH  26145.00417940 -.00000033  00000+0 -12543-3 0  9990","line2":"2 48073  87.8950 324.8205 0001529  83.7090 276.4213 13.13469550250446","mean_motion":13.1346955,"eccentricity":0.0001529,"inclination_deg":87.895,"raan_deg":324.8205,"arg_perigee_deg":83.709,"mean_anomaly_deg":276.4213,"bstar":-0.00012543,"rev_number":25044,"period_min":109.6332990742,"perigee_km":1208.6069424557,"apogee_km":1210.9273235395,"semimajor_km":7587.9041329976,"source":"CELESTRAK","updated_at":"2026-05-25T13:38:22.394440Z"}}